"SCLK","SCET","ORBIT_NUMBER","ALTITUDE","LATITUDE_PLANEOGRAPHIC","LATITUDE_PLANETOCENTRIC","LOCAL_TRUE_SOLAR_TIME","WEST_LONGITUDE","X_SUN_DIR_DISTANCE","RHO_PRP_SUN_DISTANCE","SOLAR_ZENITH_ANGLE","ELECTRON_PLASMA_FREQUENCY","FPE_QUALITY","FPP_VERIFICATION","ELECTRON_PLASMA_DENSITY","ELECTRON_CYCLOTRON_PERIOD","FCP_QUALITY","B_MAGNITUDE"
"1/0366704237.38841",2014-12-15T06:17:21.597,13903,1562.00,31.97,31.73,"23:37:45",70.80,-1.380,0.480,160.52,1.45e+02,2,,2.61e+02,,,
"1/0366704245.08891",2014-12-15T06:17:29.140,13903,1551.00,32.25,32.01,"23:35:35",70.81,-1.370,0.490,160.41,1.50e+02,2,,2.79e+02,,,
"1/0366704252.44477",2014-12-15T06:17:36.683,13903,1540.00,32.54,32.30,"23:33:25",70.82,-1.370,0.490,160.30,1.53e+02,2,,2.90e+02,,,
"1/0366704260.14592",2014-12-15T06:17:44.227,13903,1529.00,32.82,32.58,"23:31:14",70.83,-1.360,0.490,160.18,1.53e+02,2,,2.90e+02,,,
"1/0366704267.50179",2014-12-15T06:17:51.770,13903,1519.00,33.11,32.86,"23:29:04",70.84,-1.360,0.490,160.06,1.57e+02,2,,3.06e+02,,,
"1/0366704275.20229",2014-12-15T06:17:59.313,13903,1508.00,33.40,33.15,"23:26:54",70.85,-1.360,0.490,159.93,1.53e+02,2,,2.90e+02,,,
"1/0366704282.55815",2014-12-15T06:18:06.856,13903,1497.00,33.68,33.44,"23:24:44",70.86,-1.350,0.490,159.80,1.56e+02,2,,3.02e+02,,,
"1/0366704290.25865",2014-12-15T06:18:14.399,13903,1486.00,33.97,33.72,"23:24:51",70.86,-1.350,0.500,159.67,1.55e+02,2,,2.98e+02,,,
"1/0366704297.61516",2014-12-15T06:18:21.943,13903,1476.00,34.26,34.01,"23:22:41",70.87,-1.340,0.500,159.53,1.58e+02,2,,3.10e+02,,,
"1/0366704305.31566",2014-12-15T06:18:29.486,13903,1465.00,34.56,34.30,"23:20:31",70.88,-1.340,0.500,159.39,1.60e+02,2,,3.17e+02,,,
"1/0366704313.01616",2014-12-15T06:18:37.029,13903,1454.00,34.85,34.60,"23:18:21",70.89,-1.330,0.500,159.25,1.61e+02,2,,3.21e+02,,,
"1/0366704320.37202",2014-12-15T06:18:44.572,13903,1444.00,35.15,34.89,"23:18:28",70.89,-1.330,0.500,159.10,1.59e+02,2,,3.14e+02,,,
"1/0366704328.07252",2014-12-15T06:18:52.115,13903,1433.00,35.44,35.18,"23:16:18",70.90,-1.330,0.510,158.95,1.55e+02,2,,2.98e+02,,,
"1/0366704335.42904",2014-12-15T06:18:59.659,13903,1423.00,35.74,35.48,"23:14:08",70.91,-1.320,0.510,158.79,1.58e+02,2,,3.10e+02,,,
"1/0366704343.12954",2014-12-15T06:19:07.202,13903,1412.00,36.04,35.78,"23:14:15",70.91,-1.320,0.510,158.63,1.62e+02,2,,3.25e+02,,,
"1/0366704350.48540",2014-12-15T06:19:14.745,13903,1402.00,36.34,36.08,"23:12:05",70.92,-1.310,0.510,158.47,1.66e+02,2,,3.42e+02,,,
"1/0366704358.18590",2014-12-15T06:19:22.288,13903,1391.00,36.64,36.38,"23:09:55",70.93,-1.310,0.520,158.31,1.70e+02,2,,3.58e+02,,,
"1/0366704365.54241",2014-12-15T06:19:29.832,13903,1381.00,36.94,36.68,"23:10:02",70.93,-1.300,0.520,158.14,1.72e+02,2,,3.67e+02,,,
"1/0366704373.24291",2014-12-15T06:19:37.375,13903,1370.00,37.25,36.98,"23:07:52",70.94,-1.300,0.520,157.96,1.73e+02,2,,3.71e+02,,,
"1/0366704380.59877",2014-12-15T06:19:44.918,13903,1360.00,37.55,37.28,"23:07:59",70.94,-1.300,0.530,157.79,1.73e+02,2,,3.71e+02,,,
"1/0366704388.29928",2014-12-15T06:19:52.461,13903,1349.00,37.86,37.59,"23:05:49",70.95,-1.290,0.530,157.61,1.70e+02,2,,3.58e+02,,,
"1/0366704395.65514",2014-12-15T06:20:00.004,13903,1339.00,38.17,37.90,"23:05:56",70.95,-1.290,0.530,157.42,1.71e+02,2,,3.63e+02,,,
"1/0366704403.35629",2014-12-15T06:20:07.548,13903,1329.00,38.48,38.20,"23:06:04",70.95,-1.280,0.530,157.24,1.73e+02,2,,3.71e+02,,,
"1/0366704411.05679",2014-12-15T06:20:15.091,13903,1318.00,38.79,38.51,"23:03:54",70.96,-1.280,0.540,157.05,1.79e+02,2,,3.97e+02,,,
"1/0366704418.41265",2014-12-15T06:20:22.634,13903,1308.00,39.10,38.82,"23:04:01",70.96,-1.270,0.540,156.85,1.77e+02,2,,3.89e+02,,,
"1/0366704426.11315",2014-12-15T06:20:30.177,13903,1298.00,39.41,39.14,"23:04:08",70.96,-1.270,0.540,156.66,1.74e+02,2,,3.75e+02,,,
"1/0366704433.46901",2014-12-15T06:20:37.720,13903,1288.00,39.73,39.45,"23:01:58",70.97,-1.260,0.550,156.46,1.70e+02,2,,3.58e+02,,,
"1/0366704441.17017",2014-12-15T06:20:45.264,13903,1278.00,40.04,39.76,"23:02:05",70.97,-1.260,0.550,156.25,1.70e+02,2,,3.58e+02,,,
"1/0366704448.52603",2014-12-15T06:20:52.807,13903,1267.00,40.36,40.08,"23:02:13",70.97,-1.250,0.550,156.05,1.67e+02,2,,3.46e+02,,,
"1/0366704456.22653",2014-12-15T06:21:00.350,13903,1257.00,40.68,40.40,"23:02:20",70.97,-1.250,0.560,155.84,1.66e+02,2,,3.42e+02,,,
"1/0366704463.58239",2014-12-15T06:21:07.893,13903,1247.00,41.00,40.72,"23:02:27",70.97,-1.240,0.560,155.63,1.67e+02,2,,3.46e+02,,,
"1/0366704471.28289",2014-12-15T06:21:15.436,13903,1237.00,41.32,41.04,"23:02:35",70.97,-1.240,0.560,155.41,1.70e+02,2,,3.58e+02,,,
"1/0366704478.63940",2014-12-15T06:21:22.980,13903,1227.00,41.64,41.36,"23:02:42",70.97,-1.230,0.570,155.19,1.66e+02,2,,3.42e+02,,,
"1/0366704486.33990",2014-12-15T06:21:30.523,13903,1217.00,41.97,41.68,"23:02:49",70.97,-1.230,0.570,154.97,1.64e+02,2,,3.34e+02,,,
"1/0366704494.04040",2014-12-15T06:21:38.066,13903,1207.00,42.29,42.01,"23:02:57",70.97,-1.230,0.570,154.74,1.62e+02,2,,3.25e+02,,,
"1/0366704501.39627",2014-12-15T06:21:45.609,13903,1197.00,42.62,42.33,"23:03:04",70.97,-1.220,0.580,154.52,1.62e+02,2,,3.25e+02,,,
"1/0366704509.09677",2014-12-15T06:21:53.152,13903,1188.00,42.95,42.66,"23:03:11",70.97,-1.220,0.580,154.28,1.65e+02,2,,3.38e+02,,,
"1/0366704516.45328",2014-12-15T06:22:00.696,13903,1178.00,43.28,42.99,"23:05:36",70.96,-1.210,0.580,154.05,1.64e+02,2,,3.34e+02,,,
"1/0366704524.15378",2014-12-15T06:22:08.239,13903,1168.00,43.61,43.32,"23:05:44",70.96,-1.210,0.590,153.81,1.64e+02,2,,3.34e+02,,,
"1/0366704531.50964",2014-12-15T06:22:15.782,13903,1158.00,43.94,43.65,"23:05:51",70.96,-1.200,0.590,153.57,1.68e+02,2,,3.50e+02,,,
"1/0366704539.21014",2014-12-15T06:22:23.325,13903,1148.00,44.27,43.98,"23:08:16",70.95,-1.190,0.590,153.33,1.68e+02,2,,3.50e+02,,,
"1/0366704546.56600",2014-12-15T06:22:30.868,13903,1139.00,44.61,44.32,"23:08:23",70.95,-1.190,0.600,153.09,1.70e+02,2,,3.58e+02,,,
"1/0366704554.26716",2014-12-15T06:22:38.412,13903,1129.00,44.95,44.65,"23:08:31",70.95,-1.180,0.600,152.84,1.74e+02,2,,3.75e+02,,,
"1/0366704561.62302",2014-12-15T06:22:45.955,13903,1119.00,45.28,44.99,"23:10:55",70.94,-1.180,0.610,152.59,1.74e+02,2,,3.75e+02,,,
"1/0366704569.32352",2014-12-15T06:22:53.498,13903,1110.00,45.62,45.33,"23:13:20",70.93,-1.170,0.610,152.33,1.78e+02,2,,3.93e+02,,,
"1/0366704577.02402",2014-12-15T06:23:01.041,13903,1100.00,45.96,45.67,"23:13:28",70.93,-1.170,0.610,152.07,1.83e+02,2,,4.15e+02,,,
"1/0366704584.37988",2014-12-15T06:23:08.584,13903,1091.00,46.31,46.01,"23:15:52",70.92,-1.160,0.620,151.81,1.85e+02,2,,4.24e+02,,,
"1/0366704592.08103",2014-12-15T06:23:16.128,13903,1081.00,46.65,46.36,"23:18:17",70.91,-1.160,0.620,151.55,1.79e+02,2,,3.97e+02,,,
"1/0366704599.43689",2014-12-15T06:23:23.671,13903,1072.00,47.00,46.70,"23:20:42",70.90,-1.150,0.630,151.29,1.74e+02,2,,3.75e+02,,,
"1/0366704607.13739",2014-12-15T06:23:31.214,13903,1062.00,47.34,47.05,"23:23:07",70.89,-1.150,0.630,151.02,1.67e+02,2,,3.46e+02,,,
"1/0366704614.49325",2014-12-15T06:23:38.757,13903,1053.00,47.69,47.40,"23:25:32",70.88,-1.140,0.630,150.75,1.62e+02,2,,3.25e+02,,,
"1/0366704622.19376",2014-12-15T06:23:46.300,13903,1044.00,48.04,47.74,"23:27:57",70.87,-1.140,0.640,150.48,1.58e+02,2,,3.10e+02,,,
"1/0366704629.55027",2014-12-15T06:23:53.844,13903,1035.00,48.39,48.10,"23:30:22",70.86,-1.130,0.640,150.20,1.56e+02,2,,3.02e+02,,,
"1/0366704637.25077",2014-12-15T06:24:01.387,13903,1025.00,48.74,48.45,"23:32:46",70.85,-1.130,0.650,149.92,1.50e+02,2,,2.79e+02,,,
"1/0366704644.60663",2014-12-15T06:24:08.930,13903,1016.00,49.10,48.80,"23:35:11",70.84,-1.120,0.650,149.64,1.53e+02,2,,2.90e+02,,,
"1/0366704652.30713",2014-12-15T06:24:16.473,13903,1007.00,49.45,49.16,"23:39:54",70.82,-1.110,0.650,149.36,1.51e+02,2,,2.83e+02,,,
"1/0366704660.00763",2014-12-15T06:24:24.016,13903,998.00,49.81,49.51,"23:42:18",70.81,-1.110,0.660,149.07,1.47e+02,2,,2.68e+02,,,
"1/0366704667.36415",2014-12-15T06:24:31.560,13903,989.00,50.17,49.87,"23:47:01",70.79,-1.100,0.660,148.78,1.48e+02,2,,2.72e+02,,,
"1/0366704675.06465",2014-12-15T06:24:39.103,13903,980.00,50.53,50.23,"23:51:43",70.77,-1.100,0.670,148.49,1.44e+02,2,,2.57e+02,,,
"1/0366704682.42051",2014-12-15T06:24:46.646,13903,971.00,50.89,50.59,"23:54:08",70.76,-1.090,0.670,148.20,1.48e+02,2,,2.72e+02,,,
"1/0366704690.12101",2014-12-15T06:24:54.189,13903,962.00,51.25,50.95,"23:58:50",70.74,-1.090,0.680,147.90,1.45e+02,2,,2.61e+02,,,
"1/0366704697.47687",2014-12-15T06:25:01.732,13903,953.00,51.61,51.32,"00:03:33",70.72,-1.080,0.680,147.61,1.43e+02,2,,2.54e+02,,,
"1/0366704705.17802",2014-12-15T06:25:09.276,13903,944.00,51.98,51.68,"00:08:15",70.70,-1.070,0.680,147.31,1.43e+02,2,,2.54e+02,,,
"1/0366704712.53388",2014-12-15T06:25:16.819,13903,936.00,52.34,52.05,"00:12:57",70.68,-1.070,0.690,147.00,1.40e+02,2,,2.43e+02,,,
"1/0366704720.23438",2014-12-15T06:25:24.362,13903,927.00,52.71,52.42,"00:17:40",70.66,-1.060,0.690,146.70,1.41e+02,2,,2.47e+02,,,
"1/0366704727.59024",2014-12-15T06:25:31.905,13903,918.00,53.08,52.79,"00:24:40",70.63,-1.060,0.700,146.39,1.40e+02,2,,2.43e+02,,,
"1/0366704735.29074",2014-12-15T06:25:39.448,13903,910.00,53.45,53.16,"00:29:22",70.61,-1.050,0.700,146.08,1.38e+02,2,,2.36e+02,,,
"1/0366704742.64726",2014-12-15T06:25:46.992,13903,901.00,53.82,53.53,"00:36:22",70.58,-1.050,0.710,145.77,1.37e+02,2,,2.33e+02,,,
"1/0366704750.34776",2014-12-15T06:25:54.535,13903,893.00,54.20,53.91,"00:43:22",70.55,-1.040,0.710,145.45,1.37e+02,2,,2.33e+02,,,
"1/0366704758.04826",2014-12-15T06:26:02.078,13903,884.00,54.57,54.28,"00:48:04",70.53,-1.030,0.710,145.14,1.36e+02,2,,2.29e+02,,,
"1/0366704765.40412",2014-12-15T06:26:09.621,13903,876.00,54.95,54.66,"00:55:04",70.50,-1.030,0.720,144.82,1.38e+02,2,,2.36e+02,,,
"1/0366704773.10462",2014-12-15T06:26:17.164,13903,867.00,55.33,55.04,"01:02:04",70.47,-1.020,0.720,144.49,1.38e+02,2,,2.36e+02,,,
"1/0366704780.46114",2014-12-15T06:26:24.708,13903,859.00,55.71,55.42,"01:11:21",70.43,-1.020,0.730,144.17,1.54e+02,2,,2.94e+02,,,
"1/0366704788.16164",2014-12-15T06:26:32.251,13903,851.00,56.09,55.80,"01:18:21",70.40,-1.010,0.730,143.85,1.50e+02,2,,2.79e+02,,,
"1/0366704795.51750",2014-12-15T06:26:39.794,13903,843.00,56.47,56.18,"01:27:38",70.36,-1.000,0.740,143.52,1.51e+02,2,,2.83e+02,,,
"1/0366704803.21800",2014-12-15T06:26:47.337,13903,834.00,56.85,56.57,"01:34:38",70.33,-1.000,0.740,143.19,1.48e+02,2,,2.72e+02,,,
"1/0366704818.27501",2014-12-15T06:27:02.424,13903,818.00,57.62,57.34,"01:53:13",70.25,-0.980,0.750,142.52,1.47e+02,2,,2.68e+02,,,
"1/0366704825.63087",2014-12-15T06:27:09.967,13903,810.00,58.01,57.73,"02:04:48",70.20,-0.980,0.750,142.18,1.44e+02,2,,2.57e+02,,,
"1/0366704833.33137",2014-12-15T06:27:17.510,13903,802.00,58.40,58.12,"02:14:05",70.16,-0.970,0.760,141.84,1.45e+02,2,,2.61e+02,,,
"1/0366704841.03187",2014-12-15T06:27:25.053,13903,795.00,58.79,58.51,"02:25:40",70.11,-0.960,0.760,141.50,1.48e+02,2,,2.72e+02,,,
"1/0366704848.38773",2014-12-15T06:27:32.596,13903,787.00,59.18,58.91,"02:34:58",70.07,-0.960,0.770,141.16,1.49e+02,2,,2.75e+02,,,
"1/0366704856.08889",2014-12-15T06:27:40.140,13903,779.00,59.58,59.30,"02:48:50",70.01,-0.950,0.770,140.82,1.48e+02,2,,2.72e+02,,,
"1/0366704863.44475",2014-12-15T06:27:47.683,13903,771.00,59.97,59.70,"03:00:25",69.96,-0.950,0.770,140.47,1.47e+02,2,,2.68e+02,,,
"1/0366704871.14525",2014-12-15T06:27:55.226,13903,764.00,60.37,60.09,"03:12:00",69.91,-0.940,0.780,140.12,1.47e+02,2,,2.68e+02,,,
"1/0366704878.50111",2014-12-15T06:28:02.769,13903,756.00,60.77,60.49,"03:25:52",69.85,-0.930,0.780,139.77,1.25e+02,2,,1.94e+02,,,
"1/0366704886.20227",2014-12-15T06:28:10.313,13903,749.00,61.16,60.89,"03:39:45",69.79,-0.930,0.790,139.42,1.33e+02,2,,2.19e+02,3.67e+00,1,9.73e+00
"1/0366704893.55813",2014-12-15T06:28:17.856,13903,741.00,61.56,61.30,"03:53:37",69.73,-0.920,0.790,139.06,1.41e+02,2,,2.47e+02,3.70e+00,1,9.64e+00
"1/0366704901.25863",2014-12-15T06:28:25.399,13903,734.00,61.97,61.70,"04:09:47",69.66,-0.910,0.800,138.70,1.45e+02,2,,2.61e+02,,,
"1/0366704908.61449",2014-12-15T06:28:32.942,13903,727.00,62.37,62.10,"04:25:57",69.59,-0.910,0.800,138.34,1.49e+02,2,,2.75e+02,,,
"1/0366704916.31499",2014-12-15T06:28:40.485,13903,719.00,62.77,62.51,"04:42:07",69.52,-0.900,0.800,137.98,1.44e+02,2,,2.57e+02,3.42e+00,1,1.04e+01
"1/0366704924.01614",2014-12-15T06:28:48.029,13903,712.00,63.18,62.92,"04:58:17",69.45,-0.890,0.810,137.62,1.47e+02,2,,2.68e+02,3.35e+00,1,1.06e+01
"1/0366704931.37200",2014-12-15T06:28:55.572,13903,705.00,63.58,63.33,"05:16:44",69.37,-0.890,0.810,137.26,1.46e+02,2,,2.64e+02,3.44e+00,1,1.04e+01
"1/0366704939.07250",2014-12-15T06:29:03.115,13903,698.00,63.99,63.74,"05:35:11",69.29,-0.880,0.820,136.89,1.43e+02,2,,2.54e+02,3.47e+00,1,1.03e+01
"1/0366704946.42836",2014-12-15T06:29:10.658,13903,691.00,64.40,64.15,"05:55:56",69.20,-0.870,0.820,136.52,1.43e+02,2,,2.54e+02,3.74e+00,1,9.56e+00
"1/0366704954.12886",2014-12-15T06:29:18.201,13903,684.00,64.81,64.56,"06:16:41",69.11,-0.870,0.830,136.15,1.43e+02,2,,2.54e+02,3.67e+00,1,9.73e+00
"1/0366704961.48538",2014-12-15T06:29:25.745,13903,677.00,65.22,64.98,"06:37:26",69.02,-0.860,0.830,135.78,1.48e+02,2,,2.72e+02,3.98e+00,1,8.96e+00
"1/0366704969.18588",2014-12-15T06:29:33.288,13903,670.00,65.64,65.39,"07:00:29",68.92,-0.850,0.830,135.40,1.53e+02,2,,2.90e+02,4.10e+00,1,8.71e+00
"1/0366704976.54174",2014-12-15T06:29:40.831,13903,664.00,66.05,65.81,"07:23:31",68.82,-0.840,0.840,135.03,1.48e+02,2,,2.72e+02,,,
"1/0366704984.24224",2014-12-15T06:29:48.374,13903,657.00,66.47,66.23,"07:46:33",68.72,-0.840,0.840,134.65,1.62e+02,2,,3.25e+02,,,
"1/0366704991.59810",2014-12-15T06:29:55.917,13903,650.00,66.88,66.65,"08:14:11",68.60,-0.830,0.850,134.27,1.51e+02,2,,2.83e+02,,,
"1/0366704999.29926",2014-12-15T06:30:03.461,13903,644.00,67.30,67.07,"08:39:31",68.49,-0.820,0.850,133.89,1.52e+02,2,,2.87e+02,,,
"1/0366705006.65512",2014-12-15T06:30:11.004,13903,637.00,67.72,67.49,"09:09:26",68.36,-0.820,0.850,133.51,1.54e+02,2,,2.94e+02,,,
"1/0366705014.35562",2014-12-15T06:30:18.547,13903,631.00,68.14,67.91,"09:39:21",68.23,-0.810,0.860,133.12,1.74e+02,2,,3.75e+02,,,
"1/0366705022.05612",2014-12-15T06:30:26.090,13903,625.00,68.56,68.34,"10:09:16",68.10,-0.800,0.860,132.74,1.88e+02,2,,4.38e+02,,,
"1/0366705029.41198",2014-12-15T06:30:33.633,13903,619.00,68.98,68.76,"10:41:28",67.96,-0.800,0.870,132.35,1.83e+02,2,,4.15e+02,,,
"1/0366705037.11313",2014-12-15T06:30:41.177,13903,612.00,69.41,69.19,"11:15:58",67.81,-0.790,0.870,131.96,1.81e+02,2,,4.06e+02,,,
"1/0366705044.46899",2014-12-15T06:30:48.720,13903,606.00,69.83,69.62,"11:52:46",67.65,-0.780,0.870,131.57,1.83e+02,2,,4.15e+02,,,
"1/0366705052.16949",2014-12-15T06:30:56.263,13903,600.00,70.26,70.05,"12:31:51",67.48,-0.770,0.880,131.18,1.86e+02,2,,4.29e+02,,,
"1/0366705059.52535",2014-12-15T06:31:03.806,13903,594.00,70.68,70.48,"13:10:56",67.31,-0.770,0.880,130.78,1.83e+02,2,,4.15e+02,,,
"1/0366705067.22585",2014-12-15T06:31:11.349,13903,588.00,71.11,70.91,"13:54:36",67.12,-0.760,0.890,130.39,1.85e+02,2,,4.24e+02,,,
"1/0366705074.58237",2014-12-15T06:31:18.893,13903,583.00,71.54,71.34,"14:38:16",66.93,-0.750,0.890,129.99,1.94e+02,2,,4.67e+02,,,
"1/0366705082.28287",2014-12-15T06:31:26.436,13903,577.00,71.97,71.77,"15:26:31",66.72,-0.740,0.890,129.59,2.05e+02,2,,5.21e+02,,,
"1/0366705089.63873",2014-12-15T06:31:33.979,13903,571.00,72.40,72.21,"16:17:03",66.50,-0.740,0.900,129.19,1.88e+02,2,,4.38e+02,,,
"1/0366705097.33923",2014-12-15T06:31:41.522,13903,566.00,72.83,72.64,"17:09:53",66.27,-0.730,0.900,128.78,1.73e+02,2,,3.71e+02,,,
"1/0366705105.03973",2014-12-15T06:31:49.065,13903,560.00,73.26,73.08,"18:05:01",66.03,-0.720,0.910,128.38,1.67e+02,2,,3.46e+02,,,
"1/0366705112.39625",2014-12-15T06:31:56.609,13903,555.00,73.69,73.51,"19:04:44",65.77,-0.710,0.910,127.98,1.64e+02,2,,3.34e+02,,,
"1/0366705120.09675",2014-12-15T06:32:04.152,13903,549.00,74.13,73.95,"20:06:44",65.50,-0.710,0.910,127.57,1.92e+02,2,,4.57e+02,,,
"1/0366705127.45261",2014-12-15T06:32:11.695,13903,544.00,74.56,74.39,"21:15:36",65.20,-0.700,0.920,127.16,1.72e+02,2,,3.67e+02,,,
"1/0366705135.15311",2014-12-15T06:32:19.238,13903,539.00,75.00,74.83,"22:26:47",64.89,-0.690,0.920,126.75,1.92e+02,2,,4.57e+02,,,
"1/0366705142.50897",2014-12-15T06:32:26.781,13903,534.00,75.43,75.27,"23:42:32",64.56,-0.680,0.930,126.34,1.96e+02,2,,4.76e+02,,,
"1/0366705150.21012",2014-12-15T06:32:34.325,13903,529.00,75.87,75.71,"01:05:09",64.20,-0.680,0.930,125.93,1.61e+02,2,,3.21e+02,3.29e+00,1,1.09e+01
"1/0366705157.56598",2014-12-15T06:32:41.868,13903,524.00,76.30,76.15,"02:32:22",63.82,-0.670,0.930,125.51,1.42e+02,2,,2.50e+02,2.86e+00,1,1.25e+01
"1/0366705165.26648",2014-12-15T06:32:49.411,13903,519.00,76.74,76.59,"04:06:27",63.41,-0.660,0.940,125.10,1.11e+02,2,,1.53e+02,2.66e+00,1,1.34e+01
"1/0366705172.62234",2014-12-15T06:32:56.954,13903,514.00,77.18,77.03,"05:47:25",62.97,-0.650,0.940,124.68,1.02e+02,2,,1.29e+02,2.67e+00,2,1.34e+01
"1/0366705180.32284",2014-12-15T06:33:04.497,13903,510.00,77.62,77.47,"07:35:15",62.50,-0.650,0.940,124.26,9.40e+01,2,,1.10e+02,2.72e+00,1,1.31e+01
"1/0366705188.02400",2014-12-15T06:33:12.041,13903,505.00,78.05,77.91,"09:32:16",61.99,-0.640,0.950,123.84,8.70e+01,2,,9.39e+01,2.92e+00,1,1.22e+01
"1/0366705195.37986",2014-12-15T06:33:19.584,13903,501.00,78.49,78.36,"11:38:26",61.44,-0.630,0.950,123.42,7.60e+01,2,,7.16e+01,2.87e+00,1,1.24e+01
"1/0366705203.08036",2014-12-15T06:33:27.127,13903,496.00,78.93,78.80,"13:56:04",60.84,-0.620,0.950,123.00,7.70e+01,2,,7.35e+01,2.72e+00,2,1.31e+01
"1/0366705210.43622",2014-12-15T06:33:34.670,13903,492.00,79.36,79.24,"16:25:10",60.19,-0.610,0.960,122.58,8.90e+01,2,,9.82e+01,2.64e+00,2,1.35e+01
"1/0366705218.13672",2014-12-15T06:33:42.213,13903,487.00,79.80,79.68,"19:08:00",59.48,-0.610,0.960,122.15,9.60e+01,2,,1.14e+02,2.54e+00,2,1.41e+01
"1/0366705225.49324",2014-12-15T06:33:49.757,13903,483.00,80.23,80.12,"22:06:53",58.70,-0.600,0.970,121.73,9.70e+01,2,,1.17e+02,2.47e+00,2,1.44e+01
"1/0366705233.19374",2014-12-15T06:33:57.300,13903,479.00,80.67,80.55,"01:21:49",57.85,-0.590,0.970,121.30,1.33e+02,2,,2.19e+02,2.37e+00,1,1.50e+01
"1/0366705240.54960",2014-12-15T06:34:04.843,13903,475.00,81.10,80.99,"04:57:22",56.91,-0.580,0.970,120.87,1.63e+02,2,,3.29e+02,2.56e+00,1,1.40e+01
"1/0366705248.25010",2014-12-15T06:34:12.386,13903,471.00,81.53,81.43,"08:58:08",55.86,-0.570,0.980,120.44,1.77e+02,2,,3.89e+02,2.56e+00,1,1.40e+01
"1/0366705255.60596",2014-12-15T06:34:19.929,13903,467.00,81.95,81.86,"13:21:49",54.71,-0.570,0.980,120.01,1.71e+02,2,,3.63e+02,2.71e+00,1,1.32e+01
"1/0366705263.30711",2014-12-15T06:34:27.473,13903,464.00,82.38,82.29,"18:17:35",53.42,-0.560,0.980,119.58,1.62e+02,2,,3.25e+02,2.82e+00,1,1.27e+01
"1/0366705271.00761",2014-12-15T06:34:35.016,13903,460.00,82.80,82.71,"23:50:01",51.97,-0.550,0.990,119.15,1.61e+02,2,,3.21e+02,2.89e+00,1,1.24e+01
"1/0366705278.36347",2014-12-15T06:34:42.559,13903,456.00,83.22,83.13,"06:03:43",50.34,-0.540,0.990,118.72,1.62e+02,2,,3.25e+02,2.97e+00,1,1.20e+01
"1/0366705286.06397",2014-12-15T06:34:50.102,13903,453.00,83.63,83.55,"13:10:07",48.48,-0.530,0.990,118.28,1.68e+02,2,,3.50e+02,3.24e+00,1,1.10e+01
"1/0366705293.41983",2014-12-15T06:34:57.645,13903,449.00,84.03,83.96,"21:13:49",46.37,-0.530,0.990,117.85,1.60e+02,2,,3.17e+02,,,
"1/0366705301.12099",2014-12-15T06:35:05.189,13903,446.00,84.43,84.36,"06:28:34",43.95,-0.520,1.000,117.41,1.52e+02,2,,2.87e+02,2.99e+00,1,1.19e+01
"1/0366705308.47685",2014-12-15T06:35:12.732,13903,443.00,84.81,84.75,"17:08:06",41.16,-0.510,1.000,116.97,1.48e+02,2,,2.72e+02,2.99e+00,1,1.19e+01
"1/0366705316.17735",2014-12-15T06:35:20.275,13903,440.00,85.18,85.12,"05:30:47",37.92,-0.500,1.000,116.54,1.26e+02,2,,1.97e+02,3.07e+00,1,1.16e+01
"1/0366705323.53321",2014-12-15T06:35:27.818,13903,437.00,85.53,85.48,"19:54:55",34.15,-0.490,1.010,116.10,1.22e+02,2,,1.85e+02,2.76e+00,1,1.30e+01
"1/0366705331.23371",2014-12-15T06:35:35.361,13903,434.00,85.86,85.81,"12:43:27",29.75,-0.490,1.010,115.66,1.17e+02,2,,1.70e+02,,,
"1/0366705338.59023",2014-12-15T06:35:42.905,13903,431.00,86.16,86.11,"08:23:52",24.60,-0.480,1.010,115.21,1.23e+02,2,,1.88e+02,2.62e+00,1,1.36e+01
"1/0366705346.29073",2014-12-15T06:35:50.448,13903,428.00,86.43,86.38,"07:12:13",18.63,-0.470,1.020,114.77,1.22e+02,2,,1.85e+02,2.69e+00,1,1.33e+01
"1/0366705353.64659",2014-12-15T06:35:57.991,13903,425.00,86.65,86.60,"09:24:32",11.77,-0.460,1.020,114.33,1.29e+02,2,,2.06e+02,2.66e+00,1,1.34e+01
"1/0366705361.34709",2014-12-15T06:36:05.534,13903,423.00,86.82,86.77,"14:51:39",4.06,-0.450,1.020,113.89,1.31e+02,2,,2.13e+02,,,
"1/0366705369.04759",2014-12-15T06:36:13.077,13903,420.00,86.92,86.88,"15:50:59",355.66,-0.440,1.020,113.44,1.32e+02,2,,2.16e+02,2.67e+00,1,1.34e+01
"1/0366705376.40410",2014-12-15T06:36:20.621,13903,418.00,86.95,86.91,"01:25:38",346.87,-0.440,1.030,113.00,1.35e+02,2,,2.26e+02,2.72e+00,1,1.31e+01
"1/0366705384.10460",2014-12-15T06:36:28.164,13903,416.00,86.91,86.87,"10:55:42",338.10,-0.430,1.030,112.55,1.32e+02,2,,2.16e+02,,,
"1/0366705391.46046",2014-12-15T06:36:35.707,13903,413.00,86.80,86.76,"18:56:22",329.72,-0.420,1.030,112.10,1.38e+02,2,,2.36e+02,,,
"1/0366705399.16096",2014-12-15T06:36:43.250,13903,411.00,86.63,86.58,"00:12:02",322.06,-0.410,1.040,111.66,1.42e+02,2,,2.50e+02,2.74e+00,1,1.30e+01
"1/0366705406.51682",2014-12-15T06:36:50.793,13903,409.00,86.40,86.35,"02:12:54",315.25,-0.400,1.040,111.21,1.56e+02,2,,3.02e+02,,,
"1/0366705414.21798",2014-12-15T06:36:58.337,13903,407.00,86.12,86.07,"00:52:04",309.32,-0.390,1.040,110.76,1.56e+02,2,,3.02e+02,2.69e+00,1,1.33e+01
"1/0366705421.57384",2014-12-15T06:37:05.880,13903,405.00,85.81,85.76,"20:21:02",304.22,-0.390,1.040,110.31,1.54e+02,2,,2.94e+02,,,
"1/0366705429.27434",2014-12-15T06:37:13.423,13903,404.00,85.47,85.41,"13:02:41",299.85,-0.380,1.050,109.86,1.59e+02,2,,3.14e+02,,,
"1/0366705436.63020",2014-12-15T06:37:20.966,13903,402.00,85.11,85.05,"03:19:57",296.11,-0.370,1.050,109.41,1.52e+02,2,,2.87e+02,,,
"1/0366705444.33136",2014-12-15T06:37:28.510,13903,400.00,84.73,84.66,"15:35:45",292.90,-0.360,1.050,108.96,1.50e+02,2,,2.79e+02,,,
"1/0366705452.03186",2014-12-15T06:37:36.053,13903,399.00,84.34,84.26,"02:10:42",290.13,-0.350,1.050,108.51,1.70e+02,2,,3.58e+02,,,
"1/0366705459.38772",2014-12-15T06:37:43.596,13903,398.00,83.93,83.85,"11:23:10",287.72,-0.340,1.060,108.06,1.83e+02,2,,4.15e+02,,,
"1/0366705467.08822",2014-12-15T06:37:51.139,13903,396.00,83.51,83.43,"19:22:17",285.63,-0.330,1.060,107.61,1.79e+02,2,,3.97e+02,,,
"1/0366705474.44408",2014-12-15T06:37:58.682,13903,395.00,83.08,83.00,"02:24:06",283.79,-0.330,1.060,107.15,1.36e+02,2,,2.29e+02,,,
"1/0366705482.14523",2014-12-15T06:38:06.226,13903,394.00,82.65,82.56,"08:35:30",282.17,-0.320,1.060,106.70,1.67e+02,2,,3.46e+02,,,
"1/0366705489.50109",2014-12-15T06:38:13.769,13903,393.00,82.21,82.12,"14:05:38",280.73,-0.310,1.070,106.25,1.49e+02,2,,2.75e+02,,,
"1/0366705497.20159",2014-12-15T06:38:21.312,13903,392.00,81.77,81.67,"19:01:24",279.44,-0.300,1.070,105.79,1.62e+02,2,,3.25e+02,,,
"1/0366705504.55745",2014-12-15T06:38:28.855,13903,391.00,81.32,81.22,"23:25:05",278.29,-0.290,1.070,105.34,1.99e+02,2,,4.91e+02,,,
"1/0366705512.25795",2014-12-15T06:38:36.398,13903,391.00,80.87,80.76,"03:21:16",277.26,-0.280,1.070,104.88,2.09e+02,2,,5.42e+02,,,
"1/0366705519.61447",2014-12-15T06:38:43.942,13903,390.00,80.42,80.30,"06:56:50",276.32,-0.270,1.070,104.43,2.43e+02,2,,7.32e+02,,,
"1/0366705527.31497",2014-12-15T06:38:51.485,13903,389.00,79.97,79.84,"10:11:45",275.47,-0.270,1.080,103.97,2.54e+02,2,,8.00e+02,2.82e+00,1,1.27e+01
"1/0366705535.01547",2014-12-15T06:38:59.028,13903,389.00,79.51,79.38,"13:08:21",274.70,-0.260,1.080,103.52,2.59e+02,2,,8.32e+02,2.76e+00,1,1.30e+01
"1/0366705542.37133",2014-12-15T06:39:06.571,13903,389.00,79.05,78.91,"15:51:11",273.99,-0.250,1.080,103.06,2.70e+02,2,,9.04e+02,2.64e+00,1,1.35e+01